EW0956 Weather Reports


time (UTC)temp
F
wind
direction
speed
knots
gust
knots
rain 1hr
in
rain 24hr
in
rain mn
in
humidity
%
barometer
mb
20260502163028 55 55 0.0 1.7 0.00 0.00 0.00 41 1021.1
20260502161525 55 51 0.0 7.0 0.00 0.00 0.00 40 1021.3
20260502151538 52 51 0.0 1.7 0.00 0.00 0.00 46 1021.7
20260502123041 37 46 0.0 0.9 0.00 0.00 0.00 74 1022.4
20260502121540 36 49 0.0 1.7 0.00 0.00 0.00 76 1022.2
20260502114533 0 0.0 0.0 0.00 0.00 0.00 1022.0
20260502113035 0 0.0 0.0 0.00 0.00 0.00 1021.9
20260502111525 0 0.0 0.0 0.00 0.00 0.00 1022.0
20260502110032 0 0.0 0.0 0.00 0.00 0.00 1022.0
20260502104516 32 54 0.0 0.9 0.00 0.00 0.00 81 1022.0
20260502103015 32 63 0.0 0.0 0.00 0.00 0.00 83 1022.0
20260502101513 32 63 0.0 0.0 0.00 0.00 0.00 82 1021.9
20260502091510 33 37 0.0 0.0 0.00 0.00 0.00 81 1021.9
20260502070111 34 96 0.0 0.0 0.00 0.00 0.00 77 1022.0
20260502064607 35 95 0.0 0.0 0.00 0.00 0.00 74 1022.1
20260502063053 35 96 0.0 0.0 0.00 0.00 0.00 73 1022.1
20260502061546 37 95 0.0 0.0 0.00 0.00 0.00 69 1022.1
20260502060043 38 96 0.0 0.0 0.00 0.00 0.00 67 1022.1
20260502054541 39 96 0.0 0.0 0.00 0.00 0.00 66 1022.1
20260502053039 39 95 0.0 0.0 0.00 0.00 0.00 66 1022.1
20260502051536 39 95 0.0 0.0 0.00 0.00 0.00 67 1021.9
20260502050038 38 96 0.0 0.0 0.00 0.00 0.00 67 1021.7
20260502044531 39 96 0.0 0.0 0.00 0.00 0.00 66 1021.7
20260502043029 39 96 0.0 0.0 0.00 0.00 0.00 66 1021.7
20260502041530 39 94 0.0 0.0 0.00 0.00 0.00 64 1021.7
20260502040029 41 94 0.0 0.0 0.00 0.00 0.00 62 1021.7
20260502034528 42 98 0.0 0.0 0.00 0.00 0.00 61 1021.7
20260502033030 42 98 0.0 0.0 0.00 0.00 0.00 59 1021.7
20260502031527 43 98 0.0 0.0 0.00 0.00 0.00 59 1021.6
20260502030026 43 95 0.0 0.0 0.00 0.00 0.00 58 1021.5
20260502024525 44 94 0.0 0.0 0.00 0.00 0.00 57 1021.5
20260502023023 44 94 0.0 0.0 0.00 0.00 0.00 55 1021.3
20260502021523 44 98 0.0 0.0 0.00 0.00 0.00 55 1021.2
20260502020020 45 89 0.0 0.0 0.00 0.00 0.00 53 1021.0
20260502014518 46 98 0.0 0.0 0.00 0.00 0.00 51 1020.8
20260502013016 48 106 0.0 0.0 0.00 0.00 0.00 49 1020.7
20260502011515 49 120 0.0 0.9 0.00 0.00 0.00 47 1020.5
20260502010014 50 97 0.0 0.9 0.00 0.00 0.00 46 1020.3
20260502004512 51 78 0.0 0.9 0.00 0.00 0.00 44 1020.1
20260502003011 51 93 0.0 0.9 0.00 0.00 0.00 42 1019.9
20260502001638 53 102 0.0 0.9 0.00 0.00 0.00 41 1019.9
20260502000010 51 114 0.0 0.9 0.00 0.00 0.00 43 1019.9
20260501234509 52 108 0.0 0.9 0.00 0.00 0.00 43 1019.9
20260501233008 53 109 0.0 0.9 0.00 0.00 0.00 43 1019.8
20260501231507 52 128 0.0 0.9 0.00 0.00 0.00 42 1019.8
20260501230010 54 120 0.0 0.9 0.00 0.00 0.00 41 1019.7
20260501224508 55 122 0.0 0.9 0.00 0.00 0.00 39 1019.6
20260501223006 55 82 0.0 0.9 0.00 0.00 0.00 37 1019.6
20260501221510 55 86 0.0 0.9 0.00 0.00 0.00 39 1019.5
20260501220015 54 90 0.0 2.6 0.00 0.00 0.00 39 1019.5
20260501214502 53 103 0.0 1.7 0.00 0.00 0.00 43 1019.4
20260501213002 52 106 0.0 0.9 0.00 0.00 0.00 42 1019.6
20260501211501 53 86 0.0 1.7 0.00 0.00 0.00 42 1019.6
20260501210100 54 60 0.0 1.7 0.00 0.00 0.00 40 1019.6
20260501204558 54 136 0.0 2.6 0.00 0.00 0.00 43 1019.6
20260501203059 53 60 0.0 1.7 0.00 0.00 0.00 43 1019.7
20260501201558 51 84 0.0 0.9 0.00 0.00 0.00 45 1019.8
20260501200055 53 87 0.0 0.9 0.00 0.00 0.00 46 1019.7
20260501194600 51 56 0.0 0.9 0.00 0.00 0.00 46 1019.7
20260501193053 52 124 0.0 1.7 0.00 0.00 0.00 48 1019.8
20260501191553 52 87 0.0 1.7 0.00 0.00 0.00 44 1019.9
20260501190048 51 74 0.0 1.7 0.00 0.00 0.00 53 1019.9
20260501184546 50 91 0.0 1.7 0.00 0.00 0.00 52 1019.9
20260501183046 50 105 0.0 1.7 0.00 0.00 0.00 54 1019.9
20260501181545 49 93 0.0 0.9 0.00 0.00 0.00 54 1019.9
20260501180044 48 91 0.0 2.6 0.00 0.00 0.00 56 1019.9